ARIANE 5 R/B, 29165

Orbit data source: Space-Track

ARIANE 5 R/B, 29165 is space debris in HEO originally from a launch on Sat, 27 May 2006 UTC launched from the French Guiana (FRGUI). Debris objects in space refer to the collection of defunct objects orbiting the Earth. Examples of debris include non-operational satellites, rocket bodies, and fragments generated from explosions, collisions, or faulty payload assembly.

Loading next visibility...
Identifier
29165, 2006-020D
Orbit
HEO
Country
Flag of FRFR
Related business
Manufacturer
EADS/LV
Mission
Spacecraft
Bus & Motor
ESC-A, Unknown motor
Mass
~5,000 kg wet, ~5,000 kg dry
Launch date (UTC)
2006-05-27 (19 years ago)
Launch vehicle
Unknown
Launch site
French Guiana (FRGUI)
Object type
Payload
Rocket body
Debris
Shape & HBR
Cyl + 1 Nozzle, 3.5 m
Radar Cross Section
41.627 m², Large (>1 m²)

Expand to show TLE details & history
Last TLE update: 1 day ago

TLE from 1 day ago
0 ARIANE 5 R/B
1 29165U 06020D   25259.99917740  .00000036  00000-0  21316-4 0  9996
2 29165   6.8223  29.4642 5493504  51.6793 346.1130  4.56577335232835
Epoch: 2025-09-16T23:58Z
TLE epoch observation values (Epoch: 2025-09-16T23:58:48.927Z)
Latitude
0.00017°
Longitude
33.60342°
Altitude
1,620.098 km
Speed
8.585 km/s
True Right ascension
01h 57m 57s
True Declination
0° 00' 01"
Sunlit
Object was in full shadow at epoch
Visualization orbit readout
Latitude
Unknown
Longitude
Unknown
Altitude
Unknown
Speed
Unknown
Apparent Right ascension
Unknown
Apparent Declination
Unknown
Sunlit
N/A
Visualization observer readout
Local Sidereal Time
18:31:54
Azimuth
Unknown
Elevation
Unknown
Doppler factor
Unknown
Orbital elements
Apogee altitude
17,409.16 km
Perigee altitude
540.721 km
Semi-major axis
15,353.078 km
Eccentricity
0.54935
Inclination
6.8223°
RAAN
29.4642°
Arg. of periapsis
51.6793°
True anomaly
308.3093°
Mean anomaly
346.113°
Eccentric anomaly
330.71817°
Mean motion
1.14091 °/min
Orbital period
315.54 mins
BSTAR
0.000021316
Loading maneuver chart data...
Computing Atmospheric mass density...
Loading historical data...
Loading historical data...
Loading historical data...
Loading historical data...
Loading historical data...
Loading historical data...
Loading historical data...
Other satellites on launch #20 in the year 2006 (2006-05-27 UTC)

Documentation

Showing up to 5 results
|